Temperature
21 22 21 21 22 22 21 21 21 21 20 20 20 20 20 20 20 20 20 20 19 19 19 19 19 19 18 18 19 19 19 18 18 18 18 18 18 18 18 18 18 17 17
23 22 21 21 21 21 21 21 20 20 20 20 20 20 20 20 20 20 20 20 19 19 19 19 19 19 19 19 19 19 19 19 18 18 18 18 18 18 18 18 18 18 17
23 22 22 21 21 21 21 20 20 20 20 20 20 20 20 19 20 20 20 19 19 19 19 19 19 19 19 19 19 19 19 19 18 18 18 18 18 18 18 18 18 18 17
23 22 22 21 21 21 21 20 20 20 20 20 20 19 19 19 19 19 19 19 19 19 19 19 19 19 19 19 19 19 19 19 18 18 18 18 18 18 18 18 18 18 18
23 22 22 21 21 21 21 20 20 20 20 20 20 20 20 20 19 19 20 20 19 19 19 19 19 19 19 19 19 19 19 18 18 18 18 18 18 18 18 18 18 18 18
23 22 22 22 21 21 21 21 20 20 20 20 20 20 20 20 20 20 20 20 20 20 20 19 19 20 20 20 19 19 19 18 18 18 18 18 18 19 19 19 18 18 18
23 22 22 22 22 21 21 21 21 21 20 20 20 20 20 20 20 20 20 20 20 20 20 20 20 20 20 20 20 19 19 18 18 18 18 18 18 18 19 19 19 18 18
24 23 22 22 22 22 21 21 21 21 21 20 20 20 20 20 20 20 20 20 20 20 20 20 20 20 20 20 20 20 19 18 18 18 18 18 18 18 19 19 19 19 19
23 23 22 22 22 21 21 21 21 21 20 20 20 20 20 20 20 20 19 19 19 19 19 20 20 20 20 20 20 20 19 19 18 18 18 18 18 18 19 19 19 19 19
22 22 22 21 21 21 20 20 20 20 20 20 20 20 20 20 20 20 19 19 19 19 19 19 19 19 20 20 20 20 20 19 19 18 18 18 18 18 18 19 19 19 19
21 21 20 20 20 20 20 20 19 19 19 19 19 19 19 19 19 19 19 19 19 19 19 19 19 19 19 19 20 20 20 20 19 19 18 18 18 18 18 18 19 19 19
20 19 19 19 19 20 19 19 19 19 19 19 19 19 19 19 19 19 19 18 18 18 18 18 18 18 19 19 19 19 19 20 20 19 19 19 18 18 18 18 19 19 19
19 19 18 19 19 19 19 19 19 19 19 19 19 19 19 19 18 18 18 18 18 18 18 18 18 18 18 18 19 19 19 19 20 20 19 19 19 18 18 18 18 19 19
19 19 18 18 19 19 18 18 18 18 18 18 18 18 18 18 18 18 18 17 17 17 17 17 17 17 17 18 18 18 18 19 19 19 19 19 19 19 18 18 18 18 19
19 18 18 18 18 18 18 18 18 18 18 18 18 18 18 17 17 17 17 17 17 17 17 17 17 17 17 17 17 17 18 18 19 19 19 19 19 19 18 18 18 18 19
18 18 18 18 18 18 18 18 18 18 18 17 17 17 17 17 17 17 17 17 17 17 17 17 16 16 16 16 16 17 17 17 18 18 18 18 18 18 18 18 18 18 18
18 18 18 18 18 18 18 18 18 17 17 17 17 17 17 17 17 17 17 16 16 17 16 16 16 16 16 16 16 16 16 17 17 17 18 18 18 18 18 18 18 18 18
18 18 18 18 18 18 18 17 17 17 17 17 16 16 16 16 16 16 16 16 16 16 16 16 16 16 16 15 15 16 16 16 16 17 17 17 17 17 17 17 17 18 18
18 18 18 18 18 17 17 17 17 16 16 16 16 16 15 15 15 15 16 15 15 15 15 15 15 15 15 15 15 15 16 16 16 16 16 17 17 17 17 17 17 17 18
18 18 18 18 17 17 17 16 16 16 15 15 15 15 15 15 15 15 15 15 15 15 15 15 15 15 15 15 15 15 15 15 16 16 16 16 16 17 17 17 17 17 18
18 18 17 17 17 17 16 16 15 15 15 14 14 14 14 14 14 14 14 14 14 14 14 14 14 14 14 14 14 14 15 15 16 16 16 16 16 17 17 17 17 17 17
18 18 17 17 17 16 16 15 15 14 14 14 14 13 13 13 13 13 14 14 14 14 14 14 14 14 14 14 14 14 14 15 15 16 16 16 16 16 16 17 17 17 17
18 18 18 17 17 16 15 15 14 14 13 13 13 13 13 13 13 13 13 13 14 14 14 14 14 14 14 14 14 14 14 14 15 16 16 16 16 16 16 17 17 17 17
18 18 17 17 16 16 15 14 14 13 12 12 12 12 12 12 13 13 13 13 13 13 13 13 13 13 13 13 13 13 14 14 14 15 16 16 16 16 16 16 17 17 17
18 18 17 16 16 15 14 14 13 12 12 11 11 11 12 12 12 12 12 12 12 13 13 13 13 13 13 13 13 13 14 14 14 14 15 16 16 16 16 16 16 17 17
18 17 17 16 15 15 14 13 12 12 11 11 11 11 11 11 12 12 12 12 12 12 12 12 12 13 13 13 13 13 13 13 14 14 14 15 16 16 16 16 16 17 17
Wind_Speed
10 12 19 18 19 19 18 17 17 17 17 17 18 18 18 18 18 18 18 17 16 15 14 13 12 12 12 13 14 15 15 16 16 17 17 16 14 14 16 17 17 16 19
15 17 19 18 18 18 18 17 16 16 16 16 16 16 16 16 16 15 15 15 14 14 13 12 12 12 11 12 13 14 14 15 15 16 16 15 14 15 16 16 16 16 18
17 16 18 18 17 17 17 17 16 15 15 15 15 15 15 14 14 14 13 13 12 12 12 12 12 11 11 11 11 12 13 13 14 15 14 13 14 15 17 17 17 18 18
16 15 17 18 17 17 17 16 16 15 15 14 14 14 14 13 13 12 12 11 11 11 12 12 12 11 11 10 10 10 11 11 12 13 11 11 13 17 18 17 17 17 17
12 15 18 19 18 17 16 16 15 15 14 14 14 14 14 13 13 12 11 11 10 11 11 11 11 11 11 10 9 9 9 9 10 9 9 10 13 17 18 17 17 16 16
12 14 18 19 18 17 16 15 15 14 14 14 14 14 13 13 13 12 12 11 11 10 11 11 11 11 11 10 9 8 8 8 7 5 8 13 14 17 18 18 17 17 16
13 13 17 19 18 17 16 15 15 14 13 13 13 13 12 12 12 12 12 12 12 11 11 12 12 12 12 11 10 9 8 8 6 4 8 13 15 19 19 18 18 17 17
15 12 16 19 18 17 16 15 14 13 12 12 11 11 10 10 10 10 11 12 12 12 12 13 13 14 13 13 12 11 10 9 7 6 9 14 17 20 20 19 18 18 18
12 9 9 13 14 15 14 13 12 12 11 11 11 10 10 10 10 11 11 12 12 13 13 14 15 15 15 15 14 13 12 11 8 5 7 13 20 22 22 21 19 18 18
10 8 6 8 10 10 11 13 12 12 12 11 11 11 11 11 11 12 12 13 14 14 15 15 16 16 16 16 16 15 14 13 11 8 8 12 21 24 23 23 22 20 19
9 6 5 5 6 8 9 11 11 11 11 11 11 11 11 10 10 10 12 14 15 16 17 17 18 18 17 17 17 16 15 12 11 9 10 14 22 25 25 25 24 23 21
9 7 5 4 4 6 8 8 8 8 9 10 10 11 11 10 11 12 14 16 18 19 19 20 20 19 18 14 15 17 13 13 12 11 12 16 22 27 27 27 26 25 24
9 9 6 4 3 3 2 4 4 6 7 10 11 12 11 10 10 11 10 11 14 17 17 18 19 16 14 12 12 13 13 13 12 13 14 17 22 28 28 28 28 27 26
11 10 7 6 6 5 5 2 1 1 3 4 8 10 8 5 5 5 5 7 8 10 10 11 10 13 14 15 14 13 14 13 13 14 16 18 20 28 31 30 30 29 28
10 9 7 6 6 4 3 1 2 1 1 1 3 4 5 3 3 3 3 4 5 7 6 6 7 9 10 11 13 13 11 14 15 16 15 18 19 26 32 32 31 30 29
8 7 6 6 5 4 4 3 2 3 3 3 1 0 2 3 2 2 3 3 3 5 6 6 7 9 9 9 12 12 11 12 14 15 15 17 19 22 28 31 30 28 28
7 6 5 6 6 6 6 5 4 5 5 3 3 3 1 1 1 1 2 3 4 5 6 5 6 6 8 9 11 13 11 11 11 13 14 15 16 21 25 29 30 29 28
6 6 5 7 7 7 7 6 5 6 6 5 5 4 3 2 1 1 2 4 4 5 3 4 5 6 7 8 9 10 10 9 11 11 12 13 14 15 21 27 29 30 30
6 6 5 6 7 6 7 5 5 6 6 7 7 5 3 2 2 1 2 4 4 3 4 4 4 5 6 7 8 9 9 10 10 11 10 11 14 16 18 24 28 29 30
6 5 5 5 5 5 5 5 5 6 6 6 6 6 5 4 4 2 3 4 4 4 4 4 5 4 5 5 7 8 7 8 8 9 11 9 11 16 19 21 21 24 28
5 5 5 5 4 3 3 3 3 3 4 5 5 8 8 7 6 4 4 5 4 4 5 5 4 5 4 3 3 4 4 7 8 8 8 8 10 13 16 17 18 18 19
6 6 6 6 5 4 3 2 1 1 2 2 4 5 8 9 9 6 5 5 4 4 5 5 4 3 3 2 2 1 2 3 5 9 8 9 11 9 12 15 16 17 17
7 8 7 6 6 4 3 2 2 3 3 4 5 5 6 10 10 8 6 5 4 3 4 5 4 4 3 2 2 2 2 3 3 3 8 9 10 9 10 9 12 16 18
7 6 6 6 5 4 3 2 1 0 2 3 3 4 7 8 8 9 7 5 4 2 3 4 3 3 3 3 3 3 3 2 2 3 2 5 8 9 10 11 12 12 16
5 5 5 5 4 3 2 2 1 1 3 3 4 5 6 6 7 7 7 6 4 3 3 3 3 3 3 4 3 3 3 3 3 2 3 2 3 5 8 10 10 9 12
4 5 5 4 3 2 2 1 2 3 4 4 5 5 5 5 6 7 6 6 6 5 5 5 4 4 3 4 4 4 3 3 2 2 3 3 3 4 5 6 9 10 10
Wind_Direction
152 158 150 144 140 137 133 130 125 120 116 114 113 113 113 114 116 119 122 126 130 132 133 132 129 124 119 117 117 119 119 119 119 119 118 115 115 118 120 117 115 115 119
151 153 148 143 141 139 136 134 131 126 123 121 119 118 118 119 120 123 126 130 133 136 138 138 135 130 126 124 124 126 127 127 126 124 120 113 114 123 124 119 118 122 122
144 147 144 141 139 139 138 137 135 132 130 129 128 127 127 128 130 132 135 138 141 143 145 146 145 140 137 135 135 135 136 135 133 128 119 113 114 124 127 124 125 126 125
140 140 141 139 137 137 138 138 139 139 137 137 138 138 139 140 142 144 147 150 152 153 154 154 154 153 150 149 148 147 147 147 145 139 133 133 125 127 130 130 130 130 129
134 135 141 139 137 135 136 137 141 143 145 145 147 149 151 154 156 158 160 164 164 163 164 164 164 162 162 163 164 164 163 162 163 159 160 156 140 139 138 138 137 136 135
132 134 142 140 139 137 138 140 144 148 151 154 157 160 162 166 169 172 174 175 177 177 176 176 175 173 173 176 182 184 184 182 181 172 160 160 155 151 148 147 145 144 143
135 139 145 144 144 144 145 147 150 154 158 162 165 169 173 177 181 183 184 186 188 190 189 187 185 184 185 188 195 201 204 206 200 181 166 169 169 159 156 155 154 152 151
142 143 148 151 152 153 154 156 158 160 164 169 174 179 184 188 193 197 197 198 200 202 201 197 195 194 194 196 203 211 216 219 218 201 195 186 181 168 163 161 161 161 159
136 137 141 152 156 158 160 163 166 169 174 180 185 190 197 203 208 212 214 214 214 212 211 209 205 202 201 202 206 215 223 228 231 225 214 191 189 178 171 168 167 168 168
127 136 133 144 151 159 167 173 178 181 186 191 196 201 207 213 219 223 226 227 225 222 222 220 214 211 210 210 212 218 225 233 235 227 226 204 196 186 179 176 174 174 175
124 130 135 145 159 167 173 186 189 193 199 204 209 213 216 222 230 236 237 235 234 232 229 228 223 219 217 218 221 224 229 232 234 230 223 214 202 195 188 184 181 180 181
118 125 133 143 162 177 187 189 195 205 211 213 215 221 222 222 228 237 241 243 242 240 236 232 229 225 223 222 225 229 231 231 234 237 228 219 208 202 196 190 187 185 185
101 106 101 93 92 117 141 150 194 217 221 222 223 226 226 225 232 240 241 249 249 247 242 238 234 229 224 221 221 224 229 231 235 239 235 224 212 207 203 196 193 191 189
94 92 83 74 71 71 84 102 152 216 217 218 226 231 226 226 233 240 242 245 247 245 239 234 232 229 226 226 223 225 228 231 233 236 240 238 223 212 208 202 198 196 193
92 88 82 72 68 66 68 36 31 357 351 204 216 223 208 204 231 242 256 260 256 255 248 241 235 234 230 230 229 228 228 230 233 233 237 240 233 219 213 208 203 202 199
93 94 87 67 62 60 54 36 17 20 23 31 30 233 185 186 205 246 266 270 271 266 258 248 243 238 234 233 234 231 233 233 237 234 235 241 240 227 218 210 206 206 206
92 93 96 82 63 54 42 28 22 13 11 359 342 343 331 219 217 242 273 280 278 282 274 262 256 248 243 237 235 233 232 232 235 236 235 236 237 231 222 213 207 207 210
102 93 82 78 66 53 43 30 17 11 6 350 338 331 320 291 262 258 277 278 279 288 282 272 261 255 251 238 235 237 235 231 231 233 235 234 229 227 221 215 212 212 211
129 117 94 77 69 58 46 32 19 12 5 350 338 322 297 282 276 265 273 275 279 276 278 281 275 258 255 246 239 236 233 231 230 233 232 233 228 224 221 220 218 218 216
146 135 117 98 84 75 51 34 24 12 358 350 341 329 319 314 300 285 268 273 274 273 275 272 271 265 257 254 255 249 236 228 222 226 229 229 227 225 223 221 220 223 221
161 148 141 130 117 97 70 54 37 358 343 344 347 352 350 336 321 298 286 283 272 261 263 266 267 270 264 249 254 268 258 237 229 228 225 226 227 225 222 219 216 217 220
180 171 161 152 142 131 130 138 160 265 308 316 327 339 346 337 325 314 290 277 269 264 271 269 261 266 273 239 222 251 282 275 243 229 219 225 227 220 218 218 216 217 218
183 178 167 163 151 145 132 90 24 8 349 345 336 334 331 331 327 317 296 279 267 250 261 266 255 246 259 262 229 218 233 258 279 243 221 221 219 213 215 213 214 217 217
186 174 159 157 156 155 138 119 128 304 294 282 291 306 318 328 333 334 322 307 288 262 266 277 267 248 241 256 260 241 236 244 264 301 291 234 221 216 213 215 215 214 213
163 150 149 149 162 175 171 170 182 261 260 282 309 327 330 329 334 340 339 340 329 307 290 290 292 274 247 237 235 240 248 251 235 233 274 283 253 229 216 210 209 208 208
117 127 142 148 179 208 211 218 224 264 286 314 327 328 324 321 325 335 341 343 337 328 312 302 292 286 274 260 246 232 224 227 229 222 244 248 249 247 223 207 205 204 202
Height
1516 1519 1522 1524 1526 1528 1530 1532 1534 1535 1537 1538 1540 1541 1542 1543 1544 1545 1546 1547 1548 1549 1550 1551 1551 1552 1552 1552 1553 1553 1553 1554 1554 1554 1555 1555 1556 1556 1556 1557 1557 1558 1560
1515 1519 1522 1525 1527 1529 1531 1533 1535 1536 1538 1539 1540 1542 1543 1544 1545 1546 1547 1548 1549 1549 1550 1551 1552 1552 1553 1553 1553 1554 1554 1554 1555 1556 1557 1557 1558 1558 1558 1559 1559 1560 1561
1516 1519 1522 1525 1528 1530 1532 1534 1535 1537 1538 1540 1541 1542 1543 1544 1545 1546 1547 1548 1549 1550 1550 1551 1552 1553 1553 1554 1554 1555 1555 1556 1556 1557 1558 1559 1559 1560 1560 1560 1561 1562 1563
1517 1520 1523 1526 1528 1530 1532 1534 1536 1537 1539 1540 1541 1542 1543 1544 1545 1546 1547 1548 1549 1549 1550 1551 1552 1553 1554 1554 1555 1556 1556 1557 1557 1558 1559 1560 1560 1561 1561 1562 1563 1564 1565
1518 1521 1524 1526 1529 1531 1533 1535 1536 1538 1539 1540 1541 1542 1543 1544 1545 1546 1547 1548 1548 1549 1550 1551 1552 1553 1554 1555 1555 1556 1557 1558 1558 1559 1559 1560 1561 1562 1562 1563 1564 1565 1566
1520 1523 1525 1527 1529 1531 1533 1535 1537 1538 1539 1540 1541 1542 1543 1544 1544 1545 1546 1547 1548 1549 1550 1550 1551 1552 1553 1555 1555 1556 1557 1558 1558 1559 1560 1561 1562 1562 1563 1564 1564 1566 1567
1521 1524 1526 1528 1530 1532 1534 1536 1537 1538 1539 1540 1541 1542 1542 1543 1544 1545 1545 1546 1547 1548 1549 1550 1551 1552 1553 1554 1555 1556 1557 1558 1558 1559 1560 1561 1562 1563 1563 1564 1565 1566 1567
1523 1525 1527 1529 1531 1533 1535 1536 1537 1538 1539 1540 1540 1541 1542 1542 1543 1544 1545 1546 1546 1547 1548 1549 1550 1550 1552 1553 1554 1555 1556 1557 1558 1558 1559 1560 1562 1563 1564 1564 1565 1566 1568
1526 1527 1529 1531 1532 1534 1535 1537 1538 1538 1539 1540 1540 1541 1541 1542 1542 1543 1544 1544 1545 1546 1547 1547 1548 1549 1550 1551 1553 1554 1555 1556 1557 1557 1558 1559 1561 1562 1563 1564 1565 1566 1567
1527 1529 1530 1532 1533 1535 1536 1537 1538 1539 1539 1539 1540 1540 1540 1541 1541 1542 1542 1543 1543 1544 1545 1546 1547 1547 1548 1549 1551 1552 1553 1554 1555 1556 1556 1558 1559 1561 1563 1563 1565 1566 1567
1528 1530 1532 1533 1534 1535 1536 1537 1538 1538 1539 1539 1539 1539 1539 1539 1540 1540 1540 1541 1541 1542 1542 1543 1544 1545 1546 1547 1548 1549 1550 1551 1553 1554 1555 1556 1557 1559 1561 1562 1563 1564 1566
1529 1531 1532 1533 1534 1535 1536 1537 1537 1538 1538 1538 1538 1538 1537 1537 1538 1538 1538 1538 1539 1539 1539 1539 1540 1541 1542 1543 1544 1545 1546 1548 1549 1550 1552 1553 1554 1556 1558 1560 1561 1563 1564
1529 1530 1533 1533 1533 1534 1535 1536 1536 1536 1536 1536 1536 1536 1535 1535 1535 1535 1535 1535 1535 1535 1535 1535 1536 1536 1537 1538 1540 1541 1542 1543 1545 1546 1548 1550 1551 1553 1554 1556 1558 1560 1562
1529 1530 1533 1533 1533 1533 1534 1535 1535 1535 1535 1534 1533 1533 1532 1532 1532 1532 1531 1531 1531 1531 1530 1530 1530 1531 1532 1533 1534 1535 1537 1538 1539 1541 1543 1545 1547 1549 1551 1553 1555 1557 1559
1529 1531 1532 1533 1533 1533 1533 1534 1534 1534 1533 1531 1531 1530 1529 1529 1528 1528 1527 1527 1526 1526 1525 1525 1524 1525 1525 1526 1527 1529 1530 1532 1533 1535 1537 1539 1541 1543 1546 1548 1550 1553 1555
1530 1531 1532 1532 1532 1533 1533 1533 1532 1531 1530 1529 1528 1527 1526 1525 1525 1524 1523 1522 1522 1521 1519 1518 1518 1517 1517 1518 1519 1521 1523 1525 1527 1529 1531 1533 1535 1538 1540 1542 1545 1548 1551
1531 1532 1532 1532 1533 1533 1532 1532 1531 1529 1528 1527 1526 1525 1523 1522 1521 1520 1519 1518 1517 1515 1514 1512 1511 1510 1510 1510 1511 1513 1515 1517 1519 1522 1524 1526 1529 1531 1534 1537 1539 1542 1545
1532 1532 1532 1532 1532 1532 1532 1531 1529 1528 1527 1525 1524 1522 1521 1519 1518 1516 1515 1513 1512 1510 1508 1506 1504 1503 1502 1502 1502 1504 1506 1508 1511 1513 1516 1519 1522 1525 1527 1530 1533 1536 1540
1533 1533 1533 1533 1532 1531 1531 1529 1528 1526 1524 1523 1521 1519 1518 1516 1515 1513 1511 1509 1507 1505 1504 1501 1499 1498 1496 1495 1495 1496 1497 1499 1502 1505 1508 1511 1514 1518 1521 1524 1527 1530 1533
1533 1533 1532 1532 1531 1530 1529 1527 1526 1524 1522 1520 1518 1516 1514 1513 1511 1510 1508 1506 1504 1501 1499 1497 1495 1493 1491 1489 1489 1489 1489 1491 1494 1496 1499 1502 1506 1509 1513 1517 1520 1523 1526
1533 1532 1531 1530 1529 1528 1526 1524 1522 1520 1518 1516 1514 1512 1511 1509 1508 1506 1504 1502 1500 1498 1496 1494 1492 1489 1487 1486 1484 1483 1483 1485 1486 1488 1491 1494 1498 1501 1505 1509 1512 1515 1519
1531 1530 1529 1528 1526 1525 1523 1521 1519 1517 1515 1513 1511 1509 1507 1506 1504 1502 1500 1498 1497 1495 1493 1491 1489 1486 1485 1483 1482 1481 1481 1481 1481 1482 1484 1488 1491 1494 1497 1501 1504 1507 1511
1529 1528 1527 1525 1524 1522 1520 1518 1516 1514 1511 1509 1506 1504 1503 1501 1500 1498 1496 1495 1493 1492 1490 1488 1486 1484 1483 1482 1481 1481 1480 1478 1477 1478 1480 1482 1485 1488 1490 1493 1496 1499 1503
1528 1527 1525 1523 1522 1520 1518 1516 1513 1510 1507 1505 1502 1500 1499 1497 1496 1495 1493 1491 1490 1488 1487 1485 1484 1482 1481 1479 1479 1478 1479 1478 1478 1476 1476 1478 1481 1483 1485 1487 1490 1493 1496
1526 1525 1523 1521 1520 1518 1516 1513 1510 1507 1505 1502 1500 1497 1496 1494 1493 1491 1489 1488 1487 1486 1484 1483 1481 1480 1478 1477 1477 1476 1476 1476 1476 1475 1474 1475 1476 1478 1480 1482 1485 1488 1491
1525 1523 1522 1520 1518 1516 1513 1511 1508 1505 1502 1499 1497 1495 1493 1491 1489 1488 1486 1484 1483 1482 1481 1480 1479 1477 1476 1475 1474 1474 1474 1474 1474 1474 1473 1472 1473 1474 1476 1478 1480 1483 1486